Location: Dannhausen
(51.8650°N, 10.1026°E)
Time: 01:09:32
(UTC+00:00)

Cosmos 2233 Rocket - Pass Details

Date: 20 August 2020
Orbit: 952 x 992 km, 82.9° (Epoch: 26 September)

Event Time Altitude Azimuth Distance (km) Brightness Sun altitude
Exits shadow 19:20:28 - 104° (ESE) 2,967 5.9 -7.6°
Reaches altitude 10° 19:21:47 10° 93° (E) 2,757 5.8 -7.7°
Maximum altitude 19:23:58 12° 72° (ENE) 2,614 5.9 -8.0°
Drops below altitude 10° 19:26:10 10° 52° (NE) 2,760 6.2 -8.3°
Sets 19:30:33 0° 23° (NNE) 3,709 7.2 -8.9°
